Location: Unnamed
(48.6007°N, 2.4808°E)
Time: 11:20:21
(UTC+02:00)

PCSat - Pass Details

Date: 01 April 2023
Orbit: 783 x 794 km, 67.1° (Epoch: 29 May)

Event Time Altitude Azimuth Distance (km) Brightness Sun altitude
Rises 01:36:54 0° 324° (NW) 3,302 13.5 -36.9°
Reaches altitude 10° 01:39:19 10° 325° (NW) 2,370 12.6 -36.9°
Enters shadow 01:41:29 25° 325° (NW) 1,570 11.5 -37.0°
